TimeCDT,TemperatureF,Dew PointF,Humidity,Sea Level PressureIn,VisibilityMPH,Wind Direction,Wind SpeedMPH,Gust SpeedMPH,PrecipitationIn,Events,Conditions,WindDirDegrees,DateUTC
12:53 AM,62.1,55.0,78,30.13,10.0,Calm,Calm,-,N/A,,Clear,0,2013-05-27 05:53:00
1:53 AM,60.1,55.0,83,30.12,10.0,Calm,Calm,-,N/A,,Clear,0,2013-05-27 06:53:00
2:53 AM,59.0,54.0,83,30.11,10.0,Calm,Calm,-,N/A,,Clear,0,2013-05-27 07:53:00
3:53 AM,57.9,54.0,87,30.10,10.0,Calm,Calm,-,N/A,,Clear,0,2013-05-27 08:53:00
4:53 AM,57.0,54.0,89,30.12,10.0,Calm,Calm,-,N/A,,Clear,0,2013-05-27 09:53:00
5:53 AM,57.0,53.1,87,30.14,10.0,Calm,Calm,-,N/A,,Clear,0,2013-05-27 10:53:00
6:53 AM,61.0,55.9,83,30.14,10.0,Calm,Calm,-,N/A,,Clear,0,2013-05-27 11:53:00
7:53 AM,68.0,59.0,73,30.13,10.0,Calm,Calm,-,N/A,,Clear,0,2013-05-27 12:53:00
8:53 AM,75.9,57.9,54,30.12,10.0,South,10.4,-,N/A,,Clear,190,2013-05-27 13:53:00
9:53 AM,80.1,57.0,45,30.11,10.0,SW,12.7,-,N/A,,Clear,220,2013-05-27 14:53:00
10:53 AM,82.9,55.9,39,30.10,10.0,SW,12.7,21.9,N/A,,Clear,220,2013-05-27 15:53:00
11:53 AM,84.0,57.0,40,30.09,10.0,SW,18.4,25.3,N/A,,Clear,220,2013-05-27 16:53:00
12:53 PM,84.9,55.0,36,30.08,10.0,WSW,12.7,-,N/A,,Clear,240,2013-05-27 17:53:00
1:53 PM,86.0,57.9,38,30.06,10.0,SW,13.8,23.0,N/A,,Partly Cloudy,220,2013-05-27 18:53:00
2:53 PM,86.0,57.0,37,30.05,10.0,SSW,15.0,24.2,N/A,,Partly Cloudy,210,2013-05-27 19:53:00
3:53 PM,84.9,55.9,37,30.04,10.0,South,12.7,19.6,N/A,,Partly Cloudy,190,2013-05-27 20:53:00
4:53 PM,86.0,57.0,37,30.02,10.0,SSW,10.4,-,N/A,,Mostly Cloudy,210,2013-05-27 21:53:00
5:53 PM,86.0,57.0,37,30.01,10.0,SW,15.0,20.7,N/A,,Partly Cloudy,220,2013-05-27 22:53:00
6:53 PM,82.9,57.0,41,30.01,10.0,SW,11.5,-,N/A,,Mostly Cloudy,230,2013-05-27 23:53:00
7:53 PM,81.0,57.0,44,30.01,10.0,SW,12.7,-,N/A,,Mostly Cloudy,220,2013-05-28 00:53:00
8:53 PM,78.1,57.9,50,30.01,10.0,SSW,8.1,-,N/A,,Clear,210,2013-05-28 01:53:00
9:53 PM,75.9,59.0,56,30.01,10.0,South,5.8,-,N/A,,Scattered Clouds,170,2013-05-28 02:53:00
10:53 PM,75.0,57.9,55,30.01,10.0,South,8.1,-,N/A,,Clear,170,2013-05-28 03:53:00
11:53 PM,73.9,57.9,57,30.01,10.0,South,6.9,-,N/A,,Clear,190,2013-05-28 04:53:00